This demonstration page uses our WeatherBlox Daily Observations layout. Learn more.

Left ArrowRight Arrow

39.08367, -84.50855

Hourly Observations for August 11, 2015

Temp ( °F °C ) Dew Point ( °F °C ) Humidity (%) Winds ( mph kmh ) Pressure ( in mb ) Visibility ( mi km ) Precip ( " mm )
12:09 am 00:09 Mostly Cloudy with Mist and Fog 69 20.6 69 20.6 100 100 ENE 3 6 29.88 1012 6 10 N/A
12:33 am 00:33 Mostly Cloudy with Mist and Fog 69 20.6 69 20.6 100 100 N N/A 29.85 1011 6 10 N/A
12:53 am 00:53 Mostly Clear with Mist and Fog 69 20.6 69 20.6 100 100 N N/A 29.85 1011 4 6 N/A
1:35 am 01:35 Clear with Mist and Fog 69 20.6 69 20.6 100 100 N N/A 29.85 1011 2 3 N/A
1:45 am 01:45 Mostly Clear with Mist and Fog 69 20.6 69 20.6 100 100 N N/A 29.85 1011 1 2 N/A
1:53 am 01:53 Mostly Clear with Mist and Fog 69 20.6 69 20.6 100 100 NE 3 6 29.84 1011 3 4 N/A
2:00 am 02:00 Mostly Clear with Mist and Fog 68 20 68 20 100 100 NNE 3 6 29.85 1011 5 8 N/A
2:53 am 02:53 Clear with Mist and Fog 68 20 68 20 100 100 N N/A 29.85 1011 4 6 N/A
3:17 am 03:17 Mostly Clear with Mist and Fog 68 20 68 20 100 100 N N/A 29.88 1012 4 6 N/A
3:24 am 03:24 Mostly Clear with Mist and Fog 67 19.4 67 19.4 100 100 N N/A 29.88 1012 2 3 N/A
3:27 am 03:27 Mostly Cloudy with Mist and Fog 67 19.4 67 19.4 100 100 N N/A 29.88 1012 1 1 N/A
3:53 am 03:53 Mostly Cloudy with Fog 67 19.4 67 19.4 100 100 N N/A 29.86 1011 0 0 N/A
4:00 am 04:00 Mostly Cloudy with Mist and Fog 66 19 66 19 100 100 N N/A 29.88 1012 1 1 N/A
4:05 am 04:05 Mostly Cloudy with Mist and Fog 67 19.4 67 19.4 100 100 N N/A 29.88 1012 2 3 N/A
4:12 am 04:12 Mostly Cloudy with Mist and Fog 67 19.4 67 19.4 100 100 N N/A 29.88 1012 4 6 N/A
4:18 am 04:18 Partly Cloudy with Mist and Fog 67 19.4 67 19.4 100 100 N N/A 29.88 1012 3 4 N/A
4:35 am 04:35 Clear with Mist and Fog 68 20 68 20 100 100 N N/A 29.88 1012 5 8 N/A
4:53 am 04:53 Clear with Mist and Fog 66 18.9 66 18.9 100 100 N N/A 29.87 1011 3 5 N/A
5:11 am 05:11 Partly Cloudy with Mist and Fog 67 19.4 67 19.4 100 100 N N/A 29.88 1012 3 4 N/A
5:27 am 05:27 Mostly Cloudy with Mist and Fog 67 19.4 67 19.4 100 100 N N/A 29.88 1012 4 6 N/A
5:37 am 05:37 Mostly Cloudy with Mist and Fog 68 20 68 20 100 100 N N/A 29.88 1012 3 4 N/A
5:53 am 05:53 Clear with Mist and Fog 69 20.6 69 20.6 100 100 N N/A 29.88 1012 3 5 N/A
6:10 am 06:10 Mostly Clear with Mist and Fog 68 20 68 20 100 100 N N/A 29.91 1013 2 2 N/A
6:29 am 06:29 Mostly Clear with Mist and Fog 68 20 68 20 100 100 SSE 3 6 29.91 1013 2 2 N/A
6:37 am 06:37 Partly Cloudy with Mist and Fog 67 19.4 67 19.4 100 100 N N/A 29.91 1013 2 3 N/A
6:44 am 06:44 Mostly Clear with Mist and Fog 68 20 68 20 100 100 N N/A 29.91 1013 2 2 N/A
6:53 am 06:53 Mostly Sunny 68 20 68 20 100 100 N N/A 29.91 1013 7 11 N/A
7:53 am 07:53 Mostly Cloudy 70 21.1 69 20.6 97 97 N N/A 29.93 1014 7 11 N/A
8:30 am 08:30 Mostly Cloudy with Mist and Fog 72 22 70 21 94 94 N N/A 29.91 1013 5 8 N/A
8:44 am 08:44 Partly Cloudy with Mist and Fog 72 22 70 21 94 94 NW 6 9 29.91 1013 6 10 N/A
8:53 am 08:53 Partly Cloudy with Mist and Fog 73 22.8 69 20.6 87 87 NW 3 6 29.94 1014 6 10 N/A
9:36 am 09:36 Mostly Cloudy with Mist and Fog 73 23 70 21 89 89 NNW 8 13 29.94 1014 6 10 N/A
9:53 am 09:53 Cloudy with Haze 75 23.9 70 21.1 84 84 VRB 6 9 29.96 1015 6 10 N/A
10:11 am 10:11 Cloudy with Haze 74 23.3 69 20.6 85 85 NNW 8 13 29.94 1014 6 10 N/A
10:53 am 10:53 Cloudy with Haze 74 23.3 69 20.6 85 85 NNW 7 11 29.98 1015 6 10 N/A
11:53 am 11:53 Cloudy 75 23.9 68 20 79 79 NNW 12 19 29.99 1016 7 11 N/A
12:53 pm 12:53 Mostly Cloudy 77 25 69 20.6 77 77 NNE 7 11 29.98 1015 7 11 N/A
1:53 pm 13:53 Mostly Cloudy 76 24.4 67 19.4 74 74 N 12 19 29.98 1015 9 14 N/A
2:53 pm 14:53 Mostly Sunny 80 26.7 67 19.4 64 64 VRB 6 9 29.98 1015 10 16 N/A
3:53 pm 15:53 Mostly Cloudy 80 26.7 66 18.9 62 62 NW 9 15 29.97 1015 10 16 N/A
4:53 pm 16:53 Mostly Cloudy 82 27.8 65 18.3 56 56 N 12 19 29.97 1015 10 16 N/A
5:53 pm 17:53 Mostly Cloudy 82 27.8 63 17.2 53 53 N 14 22 29.96 1015 10 16 N/A
6:53 pm 18:53 Partly Cloudy 80 26.7 61 16.1 52 52 NW 13 20 29.97 1015 10 16 N/A
7:53 pm 19:53 Mostly Cloudy 79 26.1 62 16.7 56 56 VRB 6 9 29.97 1015 10 16 N/A
8:53 pm 20:53 Clear 76 24.4 62 16.7 62 62 NW 7 11 29.98 1015 10 16 N/A
9:53 pm 21:53 Clear 74 23.3 62 16.7 67 67 NNW 7 11 30.00 1016 10 16 N/A
10:53 pm 22:53 Clear 67 19.4 64 17.8 91 91 N N/A 30.01 1016 10 16 N/A
11:53 pm 23:53 Clear 64 17.8 63 17.2 96 96 N N/A 30.03 1017 10 16 N/A

Powered by AerisWeather